Total_Precipitation_Accumulation
1.81 1.82 1.82 1.74 1.74 1.75 1.84 1.91 1.94 1.74 1.49 1.26 1.10 0.98 1.05 1.06 1.28 1.19 1.02 1.05 0.98 0.88 0.80 0.75 0.86 1.02 1.24 1.36 1.48 1.64 1.80 1.89 1.92 1.79 1.69 1.64 1.64 1.74
1.56 1.61 1.67 1.65 1.71 1.72 1.78 1.85 1.83 1.77 1.61 1.36 1.18 1.11 1.14 1.03 1.15 1.04 1.09 1.25 1.06 0.91 0.83 0.79 0.81 0.90 0.98 1.01 1.02 0.99 1.02 1.09 1.14 1.21 1.22 1.23 1.30 1.44
1.23 1.28 1.35 1.36 1.48 1.52 1.63 1.71 1.74 1.70 1.48 1.30 1.19 1.20 1.21 1.19 1.16 1.08 1.13 1.17 1.06 0.96 0.83 0.74 0.77 0.83 0.89 0.93 0.92 0.87 0.82 0.77 0.81 0.89 0.97 0.99 0.96 0.98
1.02 1.08 1.09 1.10 1.22 1.31 1.39 1.48 1.61 1.65 1.53 1.37 1.26 1.20 1.10 1.11 1.26 1.31 1.29 1.20 1.20 1.26 1.13 0.96 0.89 0.86 0.83 0.89 0.94 0.90 0.83 0.75 0.68 0.71 0.78 0.86 0.90 0.91
0.72 0.77 0.83 0.90 1.06 1.14 1.17 1.27 1.42 1.47 1.56 1.44 1.37 1.30 1.15 1.08 1.24 1.27 1.33 1.50 1.41 1.48 1.59 1.39 1.14 0.98 0.87 0.90 0.95 0.93 0.86 0.79 0.67 0.64 0.73 0.80 0.79 0.83
0.62 0.63 0.65 0.69 0.80 0.92 1.01 1.20 1.36 1.49 1.54 1.47 1.45 1.42 1.34 1.24 1.31 1.40 1.47 1.57 1.60 1.43 1.44 1.42 1.36 1.24 1.05 0.93 0.98 1.03 1.00 0.92 0.85 0.78 0.76 0.78 0.75 0.74
0.57 0.61 0.62 0.60 0.62 0.66 0.66 0.85 1.08 1.31 1.41 1.46 1.48 1.51 1.46 1.41 1.36 1.49 1.56 1.68 1.77 1.75 1.61 1.43 1.40 1.25 1.12 1.04 1.01 1.05 1.09 1.07 1.02 0.91 0.85 0.85 0.81 0.79
0.60 0.62 0.60 0.56 0.61 0.60 0.59 0.61 0.73 0.90 1.08 1.20 1.28 1.34 1.39 1.50 1.61 1.62 1.59 1.65 1.71 1.72 1.59 1.60 1.53 1.41 1.24 1.07 1.07 1.09 1.12 1.13 1.10 1.02 0.93 0.85 0.83 0.84
0.56 0.69 0.74 0.68 0.66 0.69 0.71 0.65 0.59 0.61 0.77 0.98 1.11 1.16 1.23 1.32 1.55 1.60 1.61 1.64 1.56 1.59 1.45 1.49 1.44 1.32 1.23 1.19 1.20 1.12 1.13 1.10 1.10 1.04 1.01 0.94 0.87 0.89
0.51 0.64 0.88 0.91 0.79 0.74 0.78 0.88 0.79 0.64 0.64 0.70 0.87 1.01 1.06 1.21 1.53 1.75 1.70 1.50 1.46 1.52 1.41 1.42 1.35 1.23 1.16 1.14 1.19 1.10 1.08 1.05 1.01 1.02 0.99 0.97 0.92 0.92
0.43 0.56 0.72 0.86 0.80 0.74 0.73 0.81 0.85 0.75 0.69 0.71 0.68 0.76 0.89 1.07 1.33 1.59 1.70 1.66 1.50 1.45 1.33 1.25 1.27 1.25 1.27 1.22 1.16 1.15 1.07 1.07 1.06 1.05 1.07 1.06 1.02 1.07
0.30 0.46 0.62 0.60 0.56 0.62 0.73 0.84 0.93 0.78 0.68 0.77 0.77 0.79 0.82 1.01 1.33 1.54 1.67 1.66 1.55 1.50 1.38 1.29 1.28 1.29 1.46 1.42 1.24 1.18 1.12 1.14 1.15 1.13 1.12 1.15 1.20 1.17
0.24 0.38 0.45 0.42 0.41 0.49 0.60 0.72 0.87 0.73 0.75 0.89 0.94 0.92 0.99 1.04 1.15 1.31 1.51 1.63 1.55 1.40 1.32 1.42 1.48 1.40 1.38 1.38 1.34 1.25 1.16 1.09 1.08 1.10 1.12 1.12 1.17 1.15
0.28 0.33 0.34 0.31 0.32 0.36 0.41 0.52 0.64 0.72 0.81 0.94 1.02 0.99 0.96 1.02 1.07 1.11 1.22 1.33 1.33 1.28 1.20 1.16 1.26 1.25 1.18 1.08 1.06 1.13 1.14 1.11 1.07 1.07 1.09 1.21 1.19 1.19
0.25 0.30 0.31 0.31 0.33 0.34 0.36 0.44 0.58 0.77 0.95 0.96 0.89 0.86 0.91 0.96 0.96 1.08 1.15 1.19 1.22 1.21 1.11 0.96 0.97 1.03 1.03 0.97 0.89 0.90 1.00 1.06 1.02 0.99 0.99 1.04 1.06 1.10
0.26 0.28 0.29 0.32 0.34 0.34 0.40 0.52 0.68 0.89 0.98 0.90 0.84 0.74 0.75 0.88 0.93 0.94 0.98 1.00 1.06 1.10 1.02 0.96 0.93 0.92 0.94 0.91 0.86 0.83 0.83 0.88 0.93 0.96 0.95 0.94 0.93 0.96
0.24 0.30 0.34 0.40 0.45 0.52 0.62 0.71 0.74 0.78 0.84 0.76 0.81 0.74 0.68 0.75 0.79 0.79 0.81 0.78 0.79 0.79 0.82 0.84 0.87 0.85 0.83 0.85 0.87 0.83 0.83 0.79 0.78 0.88 0.95 0.93 0.88 0.89
0.28 0.35 0.43 0.51 0.57 0.66 0.72 0.72 0.71 0.73 0.76 0.73 0.72 0.71 0.65 0.64 0.66 0.68 0.71 0.75 0.78 0.74 0.68 0.65 0.67 0.73 0.78 0.83 0.83 0.77 0.79 0.81 0.82 0.85 0.85 0.84 0.78 0.77
0.26 0.36 0.56 0.62 0.60 0.65 0.70 0.69 0.61 0.55 0.57 0.58 0.57 0.54 0.52 0.53 0.57 0.59 0.61 0.66 0.68 0.65 0.65 0.66 0.66 0.69 0.71 0.66 0.61 0.60 0.69 0.74 0.76 0.80 0.82 0.80 0.75 0.72
0.21 0.29 0.42 0.47 0.51 0.57 0.58 0.56 0.50 0.44 0.43 0.42 0.41 0.42 0.43 0.45 0.46 0.50 0.51 0.51 0.56 0.57 0.56 0.57 0.59 0.62 0.67 0.68 0.62 0.54 0.54 0.62 0.65 0.68 0.71 0.75 0.78 0.88
0.24 0.29 0.34 0.38 0.39 0.39 0.40 0.41 0.40 0.41 0.41 0.41 0.40 0.41 0.42 0.43 0.42 0.41 0.45 0.49 0.49 0.49 0.51 0.52 0.53 0.62 0.67 0.73 0.70 0.55 0.47 0.54 0.59 0.59 0.65 0.75 0.75 0.70
0.25 0.26 0.27 0.28 0.28 0.29 0.31 0.35 0.37 0.40 0.41 0.41 0.41 0.43 0.45 0.46 0.45 0.44 0.44 0.45 0.47 0.50 0.50 0.51 0.52 0.56 0.62 0.69 0.64 0.56 0.52 0.53 0.59 0.69 0.69 0.69 0.67 0.63
0.27 0.25 0.25 0.27 0.28 0.31 0.34 0.35 0.36 0.39 0.42 0.43 0.45 0.47 0.49 0.50 0.50 0.49 0.47 0.47 0.48 0.50 0.53 0.54 0.55 0.59 0.61 0.63 0.63 0.61 0.59 0.58 0.60 0.63 0.63 0.67 0.65 0.61